contact:dominique.lefevre@mio.osupytheas.fr, maurice.libes@osupytheas.fr, didier.mallarino@osupytheas.fr
Project:EMSO http://www.emso-fr.org/EMSO-France
Depth: 2436.0 m
Title:EMSO Ligure Ouest : Data MII capteur CSTAR
DateTime,Latitude,Longitude,Instrument_Serial,Reference_Counts,Signal_Counts,Corrected_Signal_raw_counts,Calculated_Beam_c_inverse_meters,Internal_thermistor_counts
DateTime,Latitude,Longitude,Instrument_Serial,Reference_Counts,Signal_Counts,Corrected_Signal_raw_counts,Calculated_Beam_c_inverse_meters,Internal_thermistor_counts
2019-06-15T00:02:25,42.805,6.029,CST-1368DR,9051,12662,15527,0.023,551
2019-06-15T00:05:27,42.805,6.029,CST-1368DR,9051,12664,15529,0.022,551
2019-06-15T00:08:29,42.805,6.029,CST-1368DR,9051,12664,15530,0.022,551
2019-06-15T00:11:30,42.805,6.029,CST-1368DR,9050,12661,15527,0.023,551
2019-06-15T00:14:32,42.805,6.029,CST-1368DR,9050,12663,15530,0.022,551
2019-06-15T00:17:34,42.805,6.029,CST-1368DR,9050,12663,15530,0.022,551
2019-06-15T00:20:35,42.805,6.029,CST-1368DR,9050,12663,15530,0.022,551
2019-06-15T00:23:37,42.805,6.029,CST-1368DR,9050,12663,15530,0.022,551
2019-06-15T00:26:38,42.805,6.029,CST-1368DR,9050,12664,15532,0.022,551
2019-06-15T00:29:40,42.805,6.029,CST-1368DR,9050,12663,15531,0.022,551
2019-06-15T00:32:42,42.805,6.029,CST-1368DR,9050,12661,15528,0.023,551
2019-06-15T00:35:43,42.805,6.029,CST-1368DR,9050,12662,15529,0.022,551
2019-06-15T00:38:45,42.805,6.029,CST-1368DR,9050,12661,15528,0.023,550
2019-06-15T00:41:47,42.805,6.029,CST-1368DR,9050,12662,15529,0.022,551
2019-06-15T00:44:48,42.805,6.029,CST-1368DR,9050,12662,15529,0.022,551
2019-06-15T00:47:50,42.805,6.029,CST-1368DR,9050,12663,15530,0.022,551
2019-06-15T00:50:52,42.805,6.029,CST-1368DR,9050,12662,15529,0.022,551
2019-06-15T00:53:53,42.805,6.029,CST-1368DR,9050,12663,15530,0.022,551
2019-06-15T00:56:55,42.805,6.029,CST-1368DR,9050,12663,15530,0.022,551
2019-06-15T00:59:57,42.805,6.029,CST-1368DR,9050,12663,15530,0.022,551
2019-06-15T01:02:58,42.805,6.029,CST-1368DR,9050,12663,15530,0.022,551
2019-06-15T01:06:00,42.805,6.029,CST-1368DR,9050,12662,15529,0.022,551
2019-06-15T01:09:01,42.805,6.029,CST-1368DR,9050,12662,15529,0.022,551
2019-06-15T01:12:03,42.805,6.029,CST-1368DR,9050,12661,15528,0.023,551
2019-06-15T01:15:05,42.805,6.029,CST-1368DR,9050,12662,15529,0.022,551
2019-06-15T01:18:06,42.805,6.029,CST-1368DR,9050,12662,15529,0.022,551
2019-06-15T01:21:08,42.805,6.029,CST-1368DR,9050,12663,15530,0.022,551
2019-06-15T01:24:10,42.805,6.029,CST-1368DR,9050,12664,15531,0.022,551
2019-06-15T01:27:11,42.805,6.029,CST-1368DR,9050,12660,15527,0.023,551
2019-06-15T01:30:13,42.805,6.029,CST-1368DR,9050,12660,15526,0.023,551
2019-06-15T01:33:15,42.805,6.029,CST-1368DR,9050,12662,15529,0.022,551
2019-06-15T01:36:16,42.805,6.029,CST-1368DR,9050,12661,15528,0.023,551
2019-06-15T01:39:18,42.805,6.029,CST-1368DR,9050,12662,15529,0.022,550
2019-06-15T01:42:20,42.805,6.029,CST-1368DR,9050,12662,15529,0.022,551
2019-06-15T01:45:21,42.805,6.029,CST-1368DR,9050,12663,15530,0.022,550
2019-06-15T01:48:23,42.805,6.029,CST-1368DR,9050,12662,15529,0.022,551
2019-06-15T01:51:24,42.805,6.029,CST-1368DR,9050,12663,15530,0.022,551
2019-06-15T01:54:26,42.805,6.029,CST-1368DR,9050,12663,15530,0.022,550
2019-06-15T01:57:28,42.805,6.029,CST-1368DR,9050,12661,15528,0.023,551
2019-06-15T02:00:30,42.805,6.029,CST-1368DR,9050,12663,15530,0.022,551
2019-06-15T02:03:32,42.805,6.029,CST-1368DR,9050,12663,15530,0.022,551
2019-06-15T02:06:34,42.805,6.029,CST-1368DR,9049,12661,15530,0.022,551
2019-06-15T02:09:36,42.805,6.029,CST-1368DR,9050,12662,15529,0.022,551
2019-06-15T02:12:37,42.805,6.029,CST-1368DR,9049,12661,15530,0.022,551
2019-06-15T02:15:39,42.805,6.029,CST-1368DR,9049,12662,15531,0.022,551
2019-06-15T02:18:41,42.805,6.029,CST-1368DR,9049,12661,15529,0.022,551
2019-06-15T02:21:43,42.805,6.029,CST-1368DR,9049,12661,15530,0.022,551
2019-06-15T02:24:44,42.805,6.029,CST-1368DR,9049,12663,15532,0.022,551
2019-06-15T02:27:46,42.805,6.029,CST-1368DR,9049,12663,15531,0.022,551
2019-06-15T02:30:48,42.805,6.029,CST-1368DR,9049,12662,15530,0.022,551
2019-06-15T02:33:50,42.805,6.029,CST-1368DR,9049,12662,15530,0.022,551
2019-06-15T02:36:52,42.805,6.029,CST-1368DR,9049,12662,15531,0.022,551
2019-06-15T02:39:53,42.805,6.029,CST-1368DR,9049,12661,15530,0.022,551
2019-06-15T02:42:55,42.805,6.029,CST-1368DR,9049,12660,15529,0.022,551
2019-06-15T02:45:57,42.805,6.029,CST-1368DR,9049,12660,15529,0.022,551
2019-06-15T02:48:59,42.805,6.029,CST-1368DR,9049,12662,15531,0.022,551
2019-06-15T02:52:00,42.805,6.029,CST-1368DR,9049,12660,15528,0.023,551
2019-06-15T02:55:02,42.805,6.029,CST-1368DR,9049,12661,15530,0.022,550
2019-06-15T02:58:04,42.805,6.029,CST-1368DR,9049,12662,15530,0.022,551
2019-06-15T03:01:06,42.805,6.029,CST-1368DR,9049,12660,15529,0.022,551
2019-06-15T03:04:08,42.805,6.029,CST-1368DR,9049,12662,15530,0.022,550
2019-06-15T03:07:09,42.805,6.029,CST-1368DR,9049,12660,15528,0.023,551
2019-06-15T03:10:11,42.805,6.029,CST-1368DR,9049,12661,15529,0.022,551
2019-06-15T03:13:13,42.805,6.029,CST-1368DR,9049,12661,15529,0.022,551
2019-06-15T03:16:15,42.805,6.029,CST-1368DR,9049,12661,15530,0.022,551
2019-06-15T03:19:17,42.805,6.029,CST-1368DR,9049,12661,15529,0.022,551
2019-06-15T03:22:18,42.805,6.029,CST-1368DR,9049,12661,15529,0.022,551
2019-06-15T03:25:20,42.805,6.029,CST-1368DR,9049,12661,15529,0.022,550
2019-06-15T03:28:22,42.805,6.029,CST-1368DR,9049,12659,15527,0.023,551
2019-06-15T03:31:24,42.805,6.029,CST-1368DR,9049,12660,15528,0.023,551
2019-06-15T03:34:26,42.805,6.029,CST-1368DR,9049,12661,15529,0.022,551
2019-06-15T03:37:27,42.805,6.029,CST-1368DR,9049,12662,15530,0.022,551
2019-06-15T03:40:29,42.805,6.029,CST-1368DR,9049,12662,15530,0.022,551
2019-06-15T03:43:31,42.805,6.029,CST-1368DR,9049,12660,15528,0.023,551
2019-06-15T03:46:33,42.805,6.029,CST-1368DR,9049,12659,15527,0.023,551
2019-06-15T03:49:34,42.805,6.029,CST-1368DR,9049,12660,15528,0.023,551
2019-06-15T03:52:36,42.805,6.029,CST-1368DR,9049,12659,15526,0.023,551
2019-06-15T03:55:38,42.805,6.029,CST-1368DR,9048,12661,15530,0.022,550
2019-06-15T03:58:40,42.805,6.029,CST-1368DR,9048,12660,15529,0.022,551
2019-06-15T04:01:42,42.805,6.029,CST-1368DR,9048,12661,15530,0.022,551
2019-06-15T04:04:43,42.805,6.029,CST-1368DR,9048,12660,15530,0.022,551
2019-06-15T04:07:45,42.805,6.029,CST-1368DR,9048,12660,15529,0.022,551
2019-06-15T04:10:47,42.805,6.029,CST-1368DR,9049,12658,15526,0.023,551
2019-06-15T04:13:49,42.805,6.029,CST-1368DR,9048,12659,15529,0.022,551
2019-06-15T04:16:51,42.805,6.029,CST-1368DR,9048,12661,15531,0.022,550
2019-06-15T04:19:53,42.805,6.029,CST-1368DR,9048,12661,15531,0.022,551
2019-06-15T04:22:54,42.805,6.029,CST-1368DR,9048,12660,15530,0.022,551
2019-06-15T04:25:56,42.805,6.029,CST-1368DR,9048,12660,15530,0.022,551
2019-06-15T04:28:58,42.805,6.029,CST-1368DR,9048,12661,15530,0.022,551
2019-06-15T04:32:00,42.805,6.029,CST-1368DR,9048,12659,15528,0.023,551
2019-06-15T04:35:02,42.805,6.029,CST-1368DR,9048,12658,15527,0.023,551
2019-06-15T04:38:03,42.805,6.029,CST-1368DR,9048,12660,15530,0.022,551
2019-06-15T04:41:05,42.805,6.029,CST-1368DR,9048,12659,15529,0.022,551
2019-06-15T04:44:07,42.805,6.029,CST-1368DR,9048,12659,15528,0.023,551
2019-06-15T04:47:09,42.805,6.029,CST-1368DR,9048,12661,15530,0.022,551
2019-06-15T04:50:10,42.805,6.029,CST-1368DR,9048,12660,15530,0.022,551
2019-06-15T04:53:12,42.805,6.029,CST-1368DR,9048,12660,15530,0.022,551
2019-06-15T04:56:15,42.805,6.029,CST-1368DR,9048,12660,15530,0.022,551
2019-06-15T04:59:16,42.805,6.029,CST-1368DR,9048,12660,15530,0.022,550
2019-06-15T05:02:18,42.805,6.029,CST-1368DR,9048,12657,15526,0.023,551
2019-06-15T05:05:20,42.805,6.029,CST-1368DR,9048,12658,15527,0.023,551
2019-06-15T05:08:22,42.805,6.029,CST-1368DR,9048,12660,15529,0.022,551
2019-06-15T05:11:24,42.805,6.029,CST-1368DR,9048,12660,15529,0.022,551
2019-06-15T05:14:25,42.805,6.029,CST-1368DR,9048,12659,15528,0.023,551
2019-06-15T05:17:27,42.805,6.029,CST-1368DR,9048,12659,15529,0.022,551
2019-06-15T05:20:29,42.805,6.029,CST-1368DR,9048,12659,15528,0.023,550
2019-06-15T05:23:31,42.805,6.029,CST-1368DR,9048,12659,15529,0.022,551
2019-06-15T05:26:33,42.805,6.029,CST-1368DR,9048,12657,15526,0.023,551
2019-06-15T05:29:35,42.805,6.029,CST-1368DR,9048,12656,15525,0.023,551
2019-06-15T05:32:36,42.805,6.029,CST-1368DR,9048,12658,15528,0.023,551
2019-06-15T05:35:38,42.805,6.029,CST-1368DR,9048,12660,15529,0.022,551
2019-06-15T05:38:40,42.805,6.029,CST-1368DR,9048,12660,15530,0.022,551
2019-06-15T05:41:42,42.805,6.029,CST-1368DR,9048,12659,15528,0.023,551
2019-06-15T05:44:44,42.805,6.029,CST-1368DR,9048,12658,15527,0.023,551
2019-06-15T05:47:45,42.805,6.029,CST-1368DR,9048,12660,15530,0.022,551
2019-06-15T05:50:47,42.805,6.029,CST-1368DR,9047,12659,15530,0.022,551
2019-06-15T05:53:49,42.805,6.029,CST-1368DR,9047,12660,15531,0.022,551
2019-06-15T05:56:51,42.805,6.029,CST-1368DR,9047,12658,15529,0.022,551
2019-06-15T05:59:52,42.805,6.029,CST-1368DR,9047,12658,15529,0.022,551
2019-06-15T06:02:54,42.805,6.029,CST-1368DR,9047,12659,15530,0.022,551
2019-06-15T06:05:56,42.805,6.029,CST-1368DR,9047,12657,15528,0.023,551
2019-06-15T06:08:58,42.805,6.029,CST-1368DR,9047,12658,15529,0.022,551
2019-06-15T06:12:00,42.805,6.029,CST-1368DR,9047,12658,15529,0.022,550
2019-06-15T06:15:01,42.805,6.029,CST-1368DR,9047,12658,15529,0.022,551
2019-06-15T06:18:03,42.805,6.029,CST-1368DR,9047,12658,15529,0.022,551
2019-06-15T06:21:05,42.805,6.029,CST-1368DR,9047,12659,15530,0.022,551
2019-06-15T06:24:07,42.805,6.029,CST-1368DR,9047,12656,15526,0.023,551
2019-06-15T06:27:09,42.805,6.029,CST-1368DR,9047,12659,15530,0.022,551
2019-06-15T06:30:11,42.805,6.029,CST-1368DR,9047,12658,15529,0.022,551
2019-06-15T06:33:12,42.805,6.029,CST-1368DR,9047,12658,15529,0.022,551
2019-06-15T06:36:14,42.805,6.029,CST-1368DR,9047,12657,15528,0.023,551
2019-06-15T06:39:16,42.805,6.029,CST-1368DR,9047,12658,15529,0.022,551
2019-06-15T06:42:18,42.805,6.029,CST-1368DR,9047,12658,15529,0.022,551
2019-06-15T06:45:20,42.805,6.029,CST-1368DR,9047,12659,15530,0.022,551
2019-06-15T06:48:21,42.805,6.029,CST-1368DR,9047,12657,15527,0.023,550
2019-06-15T06:51:23,42.805,6.029,CST-1368DR,9047,12658,15529,0.022,551
2019-06-15T06:54:25,42.805,6.029,CST-1368DR,9047,12658,15529,0.022,551
2019-06-15T06:57:27,42.805,6.029,CST-1368DR,9047,12658,15529,0.022,551
2019-06-15T07:00:29,42.805,6.029,CST-1368DR,9047,12657,15528,0.023,551
2019-06-15T07:03:31,42.805,6.029,CST-1368DR,9047,12658,15529,0.022,551
2019-06-15T07:06:33,42.805,6.029,CST-1368DR,9047,12657,15527,0.023,551
2019-06-15T07:09:35,42.805,6.029,CST-1368DR,9047,12657,15528,0.023,551
2019-06-15T07:12:36,42.805,6.029,CST-1368DR,9047,12659,15530,0.022,551
2019-06-15T07:15:38,42.805,6.029,CST-1368DR,9047,12653,15523,0.024,551
2019-06-15T07:18:40,42.805,6.029,CST-1368DR,9047,12658,15529,0.022,551
2019-06-15T07:21:42,42.805,6.029,CST-1368DR,9047,12658,15529,0.022,551
2019-06-15T07:24:44,42.805,6.029,CST-1368DR,9047,12658,15528,0.023,551
2019-06-15T07:27:46,42.805,6.029,CST-1368DR,9046,12656,15528,0.023,551
2019-06-15T07:30:47,42.805,6.029,CST-1368DR,9046,12656,15528,0.023,551
2019-06-15T07:33:49,42.805,6.029,CST-1368DR,9046,12657,15529,0.022,551
2019-06-15T07:36:51,42.805,6.029,CST-1368DR,9046,12657,15530,0.022,551
2019-06-15T07:39:53,42.805,6.029,CST-1368DR,9046,12657,15529,0.022,551
2019-06-15T07:42:55,42.805,6.029,CST-1368DR,9046,12657,15529,0.022,551
2019-06-15T07:45:57,42.805,6.029,CST-1368DR,9046,12657,15529,0.022,551
2019-06-15T07:48:58,42.805,6.029,CST-1368DR,9046,12657,15529,0.022,551
2019-06-15T07:52:00,42.805,6.029,CST-1368DR,9046,12656,15528,0.023,551
2019-06-15T07:55:02,42.805,6.029,CST-1368DR,9046,12658,15530,0.022,551
2019-06-15T07:58:04,42.805,6.029,CST-1368DR,9046,12657,15529,0.022,551
2019-06-15T08:01:05,42.805,6.029,CST-1368DR,9046,12656,15528,0.023,551
2019-06-15T08:04:07,42.805,6.029,CST-1368DR,9046,12654,15525,0.023,551
2019-06-15T08:07:09,42.805,6.029,CST-1368DR,9046,12656,15528,0.023,551
2019-06-15T08:10:11,42.805,6.029,CST-1368DR,9046,12657,15530,0.022,551
2019-06-15T08:13:12,42.805,6.029,CST-1368DR,9046,12655,15527,0.023,551
2019-06-15T08:16:14,42.805,6.029,CST-1368DR,9046,12657,15529,0.022,551
2019-06-15T08:19:16,42.805,6.029,CST-1368DR,9046,12656,15528,0.023,551
2019-06-15T08:22:18,42.805,6.029,CST-1368DR,9046,12652,15523,0.024,551
2019-06-15T08:25:19,42.805,6.029,CST-1368DR,9046,12655,15527,0.023,551
2019-06-15T08:28:21,42.805,6.029,CST-1368DR,9046,12655,15527,0.023,551
2019-06-15T08:31:22,42.805,6.029,CST-1368DR,9046,12656,15528,0.023,551
2019-06-15T08:34:24,42.805,6.029,CST-1368DR,9046,12652,15523,0.024,551
2019-06-15T08:37:26,42.805,6.029,CST-1368DR,9046,12654,15525,0.023,551
2019-06-15T08:40:27,42.805,6.029,CST-1368DR,9046,12655,15527,0.023,550
2019-06-15T08:43:29,42.805,6.029,CST-1368DR,9046,12657,15529,0.022,551
2019-06-15T08:46:31,42.805,6.029,CST-1368DR,9046,12654,15525,0.023,551
2019-06-15T08:49:32,42.805,6.029,CST-1368DR,9046,12656,15528,0.023,551
2019-06-15T08:52:34,42.805,6.029,CST-1368DR,9046,12657,15529,0.022,551
2019-06-15T08:55:36,42.805,6.029,CST-1368DR,9046,12656,15528,0.023,551
2019-06-15T08:58:37,42.805,6.029,CST-1368DR,9046,12656,15528,0.023,551
2019-06-15T09:01:39,42.805,6.029,CST-1368DR,9045,12656,15529,0.022,551
2019-06-15T09:04:40,42.805,6.029,CST-1368DR,9046,12656,15528,0.023,551
2019-06-15T09:07:42,42.805,6.029,CST-1368DR,9046,12656,15528,0.023,551
2019-06-15T09:10:44,42.805,6.029,CST-1368DR,9046,12657,15529,0.022,551
2019-06-15T09:13:45,42.805,6.029,CST-1368DR,9045,12656,15530,0.022,551
2019-06-15T09:16:47,42.805,6.029,CST-1368DR,9045,12655,15528,0.023,551
2019-06-15T09:19:49,42.805,6.029,CST-1368DR,9045,12656,15529,0.022,551
2019-06-15T09:22:50,42.805,6.029,CST-1368DR,9045,12656,15530,0.022,551
2019-06-15T09:25:52,42.805,6.029,CST-1368DR,9045,12652,15525,0.023,551
2019-06-15T09:28:54,42.805,6.029,CST-1368DR,9045,12652,15524,0.024,551
2019-06-15T09:31:55,42.805,6.029,CST-1368DR,9045,12655,15529,0.022,551
2019-06-15T09:34:57,42.805,6.029,CST-1368DR,9045,12655,15528,0.023,551
2019-06-15T09:37:58,42.805,6.029,CST-1368DR,9045,12654,15527,0.023,550
2019-06-15T09:41:00,42.805,6.029,CST-1368DR,9045,12656,15529,0.022,551
2019-06-15T09:44:02,42.805,6.029,CST-1368DR,9045,12653,15526,0.023,551
2019-06-15T09:47:03,42.805,6.029,CST-1368DR,9045,12655,15529,0.022,551
2019-06-15T09:50:05,42.805,6.029,CST-1368DR,9045,12655,15528,0.023,550
2019-06-15T09:53:07,42.805,6.029,CST-1368DR,9045,12653,15526,0.023,551
2019-06-15T09:56:08,42.805,6.029,CST-1368DR,9045,12655,15528,0.023,551
2019-06-15T09:59:10,42.805,6.029,CST-1368DR,9045,12653,15526,0.023,551
2019-06-15T10:02:12,42.805,6.029,CST-1368DR,9045,12654,15527,0.023,551
2019-06-15T10:05:13,42.805,6.029,CST-1368DR,9045,12654,15527,0.023,551
2019-06-15T10:08:15,42.805,6.029,CST-1368DR,9045,12651,15524,0.024,551
2019-06-15T10:11:16,42.805,6.029,CST-1368DR,9045,12653,15526,0.023,551
2019-06-15T10:14:18,42.805,6.029,CST-1368DR,9045,12654,15527,0.023,551
2019-06-15T10:17:20,42.805,6.029,CST-1368DR,9045,12653,15526,0.023,551
2019-06-15T10:20:21,42.805,6.029,CST-1368DR,9045,12653,15526,0.023,551
2019-06-15T10:23:23,42.805,6.029,CST-1368DR,9045,12652,15524,0.024,551
2019-06-15T10:26:25,42.805,6.029,CST-1368DR,9045,12653,15525,0.023,551
2019-06-15T10:29:26,42.805,6.029,CST-1368DR,9045,12654,15528,0.023,551
2019-06-15T10:32:28,42.805,6.029,CST-1368DR,9045,12652,15524,0.024,551
2019-06-15T10:35:29,42.805,6.029,CST-1368DR,9045,12654,15528,0.023,551
2019-06-15T10:38:31,42.805,6.029,CST-1368DR,9045,12655,15528,0.023,550
2019-06-15T10:41:33,42.805,6.029,CST-1368DR,9045,12654,15527,0.023,550
2019-06-15T10:44:34,42.805,6.029,CST-1368DR,9045,12654,15527,0.023,551
2019-06-15T10:47:36,42.805,6.029,CST-1368DR,9045,12652,15524,0.024,551
2019-06-15T10:50:38,42.805,6.029,CST-1368DR,9045,12654,15527,0.023,551
2019-06-15T10:53:39,42.805,6.029,CST-1368DR,9044,12651,15525,0.023,551
2019-06-15T10:56:41,42.805,6.029,CST-1368DR,9045,12654,15528,0.023,551
2019-06-15T10:59:43,42.805,6.029,CST-1368DR,9044,12655,15529,0.022,551
2019-06-15T11:02:44,42.805,6.029,CST-1368DR,9044,12654,15528,0.023,551
2019-06-15T11:05:46,42.805,6.029,CST-1368DR,9044,12653,15528,0.023,551
2019-06-15T11:08:47,42.805,6.029,CST-1368DR,9044,12653,15527,0.023,551
2019-06-15T11:11:49,42.805,6.029,CST-1368DR,9044,12654,15528,0.023,551
2019-06-15T11:14:51,42.805,6.029,CST-1368DR,9044,12654,15528,0.023,551
2019-06-15T11:17:52,42.805,6.029,CST-1368DR,9044,12652,15526,0.023,551
2019-06-15T11:20:54,42.805,6.029,CST-1368DR,9044,12654,15528,0.023,550
2019-06-15T11:23:56,42.805,6.029,CST-1368DR,9044,12654,15529,0.022,551
2019-06-15T11:26:57,42.805,6.029,CST-1368DR,9044,12655,15529,0.022,551
2019-06-15T11:29:59,42.805,6.029,CST-1368DR,9044,12655,15529,0.022,551
2019-06-15T11:33:01,42.805,6.029,CST-1368DR,9044,12654,15528,0.023,551
2019-06-15T11:36:02,42.805,6.029,CST-1368DR,9044,12653,15527,0.023,551
2019-06-15T11:39:04,42.805,6.029,CST-1368DR,9044,12651,15524,0.024,551
2019-06-15T11:42:06,42.805,6.029,CST-1368DR,9044,12644,15516,0.026,551
2019-06-15T11:45:08,42.805,6.029,CST-1368DR,9044,12653,15527,0.023,551
2019-06-15T11:48:09,42.805,6.029,CST-1368DR,9044,12654,15528,0.023,551
2019-06-15T11:51:11,42.805,6.029,CST-1368DR,9044,12653,15527,0.023,551
2019-06-15T11:54:13,42.805,6.029,CST-1368DR,9044,12653,15527,0.023,551
2019-06-15T11:57:15,42.805,6.029,CST-1368DR,9044,12654,15528,0.023,551
2019-06-15T12:00:17,42.805,6.029,CST-1368DR,9044,12653,15527,0.023,551
2019-06-15T12:03:18,42.805,6.029,CST-1368DR,9044,12646,15519,0.025,551
2019-06-15T12:06:20,42.805,6.029,CST-1368DR,9044,12654,15529,0.022,551
2019-06-15T12:09:22,42.805,6.029,CST-1368DR,9044,12654,15528,0.023,551
2019-06-15T12:12:24,42.805,6.029,CST-1368DR,9044,12654,15529,0.022,550
2019-06-15T12:15:26,42.805,6.029,CST-1368DR,9044,12653,15527,0.023,551
2019-06-15T12:18:27,42.805,6.029,CST-1368DR,9044,12652,15526,0.023,551
2019-06-15T12:21:29,42.805,6.029,CST-1368DR,9044,12653,15528,0.023,551
2019-06-15T12:24:31,42.805,6.029,CST-1368DR,9044,12653,15528,0.023,551
2019-06-15T12:27:33,42.805,6.029,CST-1368DR,9043,12653,15529,0.022,551
2019-06-15T12:30:34,42.805,6.029,CST-1368DR,9043,12653,15529,0.022,551
2019-06-15T12:33:36,42.805,6.029,CST-1368DR,9043,12653,15529,0.022,551
2019-06-15T12:36:38,42.805,6.029,CST-1368DR,9043,12653,15529,0.022,551
2019-06-15T12:39:40,42.805,6.029,CST-1368DR,9043,12652,15528,0.023,551
2019-06-15T12:42:42,42.805,6.029,CST-1368DR,9043,12651,15526,0.023,551
2019-06-15T12:45:43,42.805,6.029,CST-1368DR,9043,12651,15527,0.023,551
2019-06-15T12:48:45,42.805,6.029,CST-1368DR,9043,12653,15529,0.022,551
2019-06-15T12:51:47,42.805,6.029,CST-1368DR,9043,12653,15529,0.022,551
2019-06-15T12:54:49,42.805,6.029,CST-1368DR,9043,12653,15529,0.022,551
2019-06-15T12:57:51,42.805,6.029,CST-1368DR,9043,12653,15529,0.022,551
2019-06-15T13:00:53,42.805,6.029,CST-1368DR,9043,12650,15525,0.023,551
2019-06-15T13:03:54,42.805,6.029,CST-1368DR,9043,12652,15527,0.023,551
2019-06-15T13:06:56,42.805,6.029,CST-1368DR,9043,12653,15529,0.022,551
2019-06-15T13:09:58,42.805,6.029,CST-1368DR,9043,12650,15525,0.023,551
2019-06-15T13:13:00,42.805,6.029,CST-1368DR,9043,12652,15527,0.023,551
2019-06-15T13:16:02,42.805,6.029,CST-1368DR,9043,12650,15526,0.023,551
2019-06-15T13:19:03,42.805,6.029,CST-1368DR,9043,12652,15528,0.023,551
2019-06-15T13:22:05,42.805,6.029,CST-1368DR,9043,12651,15526,0.023,551
2019-06-15T13:25:07,42.805,6.029,CST-1368DR,9043,12652,15528,0.023,551
2019-06-15T13:28:09,42.805,6.029,CST-1368DR,9043,12653,15529,0.022,551
2019-06-15T13:31:10,42.805,6.029,CST-1368DR,9043,12653,15529,0.022,551
2019-06-15T13:34:12,42.805,6.029,CST-1368DR,9043,12651,15526,0.023,550
2019-06-15T13:37:14,42.805,6.029,CST-1368DR,9043,12652,15528,0.023,551
2019-06-15T13:40:16,42.805,6.029,CST-1368DR,9043,12652,15527,0.023,550
2019-06-15T13:43:17,42.805,6.029,CST-1368DR,9043,12653,15529,0.022,551
2019-06-15T13:46:19,42.805,6.029,CST-1368DR,9043,12652,15528,0.023,551
2019-06-15T13:49:21,42.805,6.029,CST-1368DR,9043,12651,15527,0.023,551
2019-06-15T13:52:23,42.805,6.029,CST-1368DR,9043,12651,15526,0.023,551
2019-06-15T13:55:25,42.805,6.029,CST-1368DR,9043,12651,15526,0.023,551
2019-06-15T13:58:26,42.805,6.029,CST-1368DR,9043,12652,15527,0.023,551
2019-06-15T14:01:28,42.805,6.029,CST-1368DR,9042,12653,15530,0.022,551
2019-06-15T14:04:30,42.805,6.029,CST-1368DR,9042,12652,15529,0.022,551
2019-06-15T14:07:32,42.805,6.029,CST-1368DR,9043,12651,15527,0.023,551
2019-06-15T14:10:34,42.805,6.029,CST-1368DR,9042,12651,15528,0.023,551
2019-06-15T14:13:36,42.805,6.029,CST-1368DR,9042,12653,15530,0.022,551
2019-06-15T14:16:37,42.805,6.029,CST-1368DR,9042,12648,15525,0.023,551
2019-06-15T14:19:39,42.805,6.029,CST-1368DR,9042,12653,15530,0.022,551
2019-06-15T14:22:41,42.805,6.029,CST-1368DR,9042,12653,15530,0.022,551
2019-06-15T14:25:43,42.805,6.029,CST-1368DR,9042,12652,15529,0.022,551
2019-06-15T14:28:44,42.805,6.029,CST-1368DR,9042,12652,15529,0.022,551
2019-06-15T14:31:46,42.805,6.029,CST-1368DR,9042,12653,15530,0.022,551
2019-06-15T14:34:48,42.805,6.029,CST-1368DR,9042,12651,15529,0.022,551
2019-06-15T14:37:50,42.805,6.029,CST-1368DR,9042,12652,15529,0.022,551
2019-06-15T14:40:52,42.805,6.029,CST-1368DR,9042,12648,15525,0.023,551
2019-06-15T14:43:53,42.805,6.029,CST-1368DR,9042,12651,15528,0.023,551
2019-06-15T14:46:55,42.805,6.029,CST-1368DR,9042,12652,15529,0.022,551
2019-06-15T14:49:57,42.805,6.029,CST-1368DR,9042,12652,15529,0.022,551
2019-06-15T14:52:59,42.805,6.029,CST-1368DR,9042,12651,15528,0.023,551
2019-06-15T14:56:01,42.805,6.029,CST-1368DR,9042,12651,15529,0.022,551
2019-06-15T14:59:03,42.805,6.029,CST-1368DR,9042,12651,15528,0.023,551
2019-06-15T15:02:04,42.805,6.029,CST-1368DR,9042,12651,15528,0.023,551
2019-06-15T15:05:06,42.805,6.029,CST-1368DR,9042,12652,15529,0.022,551
2019-06-15T15:08:08,42.805,6.029,CST-1368DR,9042,12650,15526,0.023,551
2019-06-15T15:11:10,42.805,6.029,CST-1368DR,9042,12650,15527,0.023,551
2019-06-15T15:14:12,42.805,6.029,CST-1368DR,9042,12650,15527,0.023,551
2019-06-15T15:17:13,42.805,6.029,CST-1368DR,9042,12650,15527,0.023,551
2019-06-15T15:20:15,42.805,6.029,CST-1368DR,9042,12651,15528,0.023,551
2019-06-15T15:23:17,42.805,6.029,CST-1368DR,9042,12651,15528,0.023,551
2019-06-15T15:26:19,42.805,6.029,CST-1368DR,9041,12650,15529,0.022,550
2019-06-15T15:29:20,42.805,6.029,CST-1368DR,9041,12651,15529,0.022,551
2019-06-15T15:32:22,42.805,6.029,CST-1368DR,9042,12651,15529,0.022,551
2019-06-15T15:35:24,42.805,6.029,CST-1368DR,9042,12651,15529,0.022,551
2019-06-15T15:38:26,42.805,6.029,CST-1368DR,9042,12648,15524,0.024,551
2019-06-15T15:41:28,42.805,6.029,CST-1368DR,9041,12650,15528,0.023,551
2019-06-15T15:44:29,42.805,6.029,CST-1368DR,9041,12650,15528,0.023,551
2019-06-15T15:47:31,42.805,6.029,CST-1368DR,9041,12650,15528,0.023,551
2019-06-15T15:50:33,42.805,6.029,CST-1368DR,9041,12651,15529,0.022,551
2019-06-15T15:53:35,42.805,6.029,CST-1368DR,9041,12650,15528,0.023,551
2019-06-15T15:56:37,42.805,6.029,CST-1368DR,9041,12650,15528,0.023,551
2019-06-15T15:59:38,42.805,6.029,CST-1368DR,9041,12651,15529,0.022,551
2019-06-15T16:02:40,42.805,6.029,CST-1368DR,9041,12651,15529,0.022,550
2019-06-15T16:05:42,42.805,6.029,CST-1368DR,9041,12650,15529,0.022,551
2019-06-15T16:08:44,42.805,6.029,CST-1368DR,9041,12649,15528,0.023,551
2019-06-15T16:11:46,42.805,6.029,CST-1368DR,9041,12650,15529,0.022,551
2019-06-15T16:14:47,42.805,6.029,CST-1368DR,9041,12648,15526,0.023,551
2019-06-15T16:17:49,42.805,6.029,CST-1368DR,9041,12651,15530,0.022,551
2019-06-15T16:20:51,42.805,6.029,CST-1368DR,9041,12651,15530,0.022,551
2019-06-15T16:23:53,42.805,6.029,CST-1368DR,9041,12649,15527,0.023,550
2019-06-15T16:26:55,42.805,6.029,CST-1368DR,9041,12649,15527,0.023,551
2019-06-15T16:29:56,42.805,6.029,CST-1368DR,9041,12651,15530,0.022,551
2019-06-15T16:32:58,42.805,6.029,CST-1368DR,9041,12648,15526,0.023,550
2019-06-15T16:36:00,42.805,6.029,CST-1368DR,9041,12651,15530,0.022,551
2019-06-15T16:39:02,42.805,6.029,CST-1368DR,9041,12650,15528,0.023,551